Location: Tel Aviv
(32.0670°N, 34.7670°E)
Time: 18:30:00
(UTC+03:00)

Vanguard 2 Rocket - Pass Details

Date: 28 January 2022
Orbit: 553 x 3323 km, 32.9° (Epoch: 24 May)

Event Time Altitude Azimuth Distance (km) Brightness Sun altitude
Exits shadow 04:42:42 32° 280° (W) 4,415 9.7 -24.3°
Maximum altitude 04:54:53 84° 197° (SSW) 3,336 9.6 -21.8°
Drops below altitude 10° 05:14:17 10° 112° (ESE) 5,739 12.2 -17.7°
Sets 05:18:10 0° 111° (ESE) 6,504 12.9 -16.9°
